| time (UTC) | temp F | wind direction | speed knots | gust knots | rain 1hr in | rain 24hr in | rain mn in | humidity % | barometer mb |
| 20260503193052 | 79 | 126 | 2.6 | 8.7 | 0.00 | 0.00 | 0.00 | 28 | 1010.8 |
| 20260503191543 | 79 | 140 | 1.7 | 7.0 | 0.00 | 0.00 | 0.00 | 31 | 1011.0 |
| 20260503190047 | 78 | 164 | 1.7 | 7.8 | 0.00 | 0.00 | 0.00 | 30 | 1011.1 |
| 20260503184547 | 78 | 135 | 3.5 | 7.0 | 0.00 | 0.00 | 0.00 | 32 | 1011.2 |
| 20260503183052 | 78 | 146 | 3.5 | 9.6 | 0.00 | 0.00 | 0.00 | 33 | 1011.3 |
| 20260503181535 | 78 | 158 | 1.7 | 7.0 | 0.00 | 0.00 | 0.00 | 35 | 1011.5 |
| 20260503180033 | 77 | 173 | 0.9 | 8.7 | 0.00 | 0.00 | 0.00 | 35 | 1011.6 |
| 20260503174529 | 76 | 119 | 0.0 | 3.5 | 0.00 | 0.00 | 0.00 | 41 | 1011.7 |
| 20260503173025 | 74 | 111 | 0.0 | 0.0 | 0.00 | 0.00 | 0.00 | 42 | 1011.9 |
| 20260503171521 | 72 | 88 | 0.0 | 0.0 | 0.00 | 0.00 | 0.00 | 46 | 1012.0 |
| 20260503081511 | 51 | 5 | 0.0 | 0.0 | 0.00 | 0.00 | 0.00 | 71 | 1012.5 |
| 20260503071557 | 54 | 5 | 0.0 | 1.7 | 0.00 | 0.00 | 0.00 | 69 | 1012.4 |
| 20260503054540 | 55 | 5 | 0.0 | 0.0 | 0.00 | 0.00 | 0.00 | 70 | 1012.3 |
| 20260503053029 | 56 | 5 | 0.0 | 0.0 | 0.00 | 0.00 | 0.00 | 68 | 1012.3 |
| 20260503051524 | 57 | 5 | 0.0 | 0.0 | 0.00 | 0.00 | 0.00 | 66 | 1012.2 |
| 20260503050030 | 58 | 5 | 0.0 | 0.0 | 0.00 | 0.00 | 0.00 | 64 | 1012.0 |
| 20260503044516 | 58 | 5 | 0.0 | 0.0 | 0.00 | 0.00 | 0.00 | 64 | 1011.9 |
| 20260503043016 | 59 | 5 | 0.0 | 0.0 | 0.00 | 0.00 | 0.00 | 62 | 1011.7 |
| 20260503041509 | 61 | 5 | 0.0 | 5.2 | 0.00 | 0.00 | 0.00 | 58 | 1011.3 |
| 20260503040002 | 62 | 5 | 0.0 | 0.0 | 0.00 | 0.00 | 0.00 | 58 | 1011.0 |
| 20260503034558 | 64 | 14 | 0.0 | 0.0 | 0.00 | 0.00 | 0.00 | 55 | 1010.8 |
| 20260503033123 | 67 | 14 | 0.0 | 0.0 | 0.00 | 0.00 | 0.00 | 48 | 1010.7 |
| 20260503031556 | 71 | 99 | 0.0 | 0.0 | 0.00 | 0.00 | 0.00 | 36 | 1010.5 |
| 20260503030045 | 73 | 99 | 0.0 | 7.0 | 0.00 | 0.00 | 0.00 | 34 | 1010.2 |
| 20260503024551 | 75 | 103 | 0.0 | 6.1 | 0.00 | 0.00 | 0.00 | 32 | 1010.1 |
| 20260503023036 | 75 | 82 | 0.0 | 8.7 | 0.00 | 0.00 | 0.00 | 31 | 1010.1 |
| 20260503021532 | 76 | 84 | 4.3 | 8.7 | 0.00 | 0.00 | 0.00 | 30 | 1009.9 |
| 20260503020028 | 76 | 69 | 0.9 | 12.2 | 0.00 | 0.00 | 0.00 | 31 | 1009.9 |
| 20260503014537 | 76 | 76 | 0.9 | 11.3 | 0.00 | 0.00 | 0.00 | 30 | 1009.8 |
| 20260503013025 | 77 | 76 | 2.6 | 8.7 | 0.00 | 0.00 | 0.00 | 31 | 1009.9 |
| 20260503011514 | 77 | 83 | 5.2 | 10.4 | 0.00 | 0.00 | 0.00 | 29 | 1009.9 |
| 20260503010010 | 77 | 46 | 2.6 | 11.3 | 0.00 | 0.00 | 0.00 | 29 | 1009.8 |
| 20260503004505 | 78 | 49 | 4.3 | 10.4 | 0.00 | 0.00 | 0.00 | 29 | 1009.8 |
| 20260503003001 | 77 | 53 | 4.3 | 12.2 | 0.00 | 0.00 | 0.00 | 28 | 1009.8 |
| 20260503001602 | 78 | 63 | 4.3 | 9.6 | 0.00 | 0.00 | 0.00 | 29 | 1009.8 |
| 20260503000106 | 78 | 46 | 4.3 | 11.3 | 0.00 | 0.00 | 0.00 | 29 | 1009.8 |
| 20260502234602 | 78 | 47 | 5.2 | 13.9 | 0.00 | 0.00 | 0.00 | 29 | 1009.8 |
| 20260502233059 | 78 | 57 | 0.9 | 11.3 | 0.00 | 0.00 | 0.00 | 29 | 1010.0 |
| 20260502231556 | 78 | 76 | 5.2 | 15.6 | 0.00 | 0.00 | 0.00 | 29 | 1010.3 |
| 20260502230035 | 77 | 77 | 4.3 | 11.3 | 0.00 | 0.00 | 0.00 | 29 | 1010.4 |
| 20260502224532 | 77 | 107 | 0.0 | 8.7 | 0.00 | 0.00 | 0.00 | 30 | 1010.6 |
| 20260502223027 | 76 | 77 | 4.3 | 12.2 | 0.00 | 0.00 | 0.00 | 31 | 1010.6 |
| 20260502221521 | 76 | 77 | 3.5 | 8.7 | 0.00 | 0.00 | 0.00 | 33 | 1010.8 |
| 20260502220022 | 74 | 115 | 0.9 | 7.8 | 0.00 | 0.00 | 0.00 | 34 | 1010.9 |
| 20260502214512 | 75 | 141 | 2.6 | 18.2 | 0.00 | 0.00 | 0.00 | 34 | 1010.9 |
| 20260502213008 | 74 | 82 | 3.5 | 7.0 | 0.00 | 0.00 | 0.00 | 40 | 1011.1 |
| 20260502211515 | 74 | 146 | 6.1 | 12.2 | 0.00 | 0.00 | 0.00 | 42 | 1011.3 |
| 20260502210109 | 71 | 148 | 0.0 | 0.9 | 0.00 | 0.00 | 0.00 | 45 | 1011.2 |
| 20260502204555 | 69 | 12 | 0.9 | 9.6 | 0.00 | 0.00 | 0.00 | 49 | 1011.1 |
| 20260502203057 | 69 | 67 | 5.2 | 8.7 | 0.00 | 0.00 | 0.00 | 50 | 1012.1 |
| 20260502201549 | 71 | 104 | 0.0 | 0.0 | 0.00 | 0.00 | 0.00 | 42 | 1012.2 |
| 20260502200043 | 71 | 95 | 3.5 | 9.6 | 0.00 | 0.00 | 0.00 | 44 | 1012.3 |
| 20260502194542 | 72 | 101 | 6.1 | 9.6 | 0.00 | 0.00 | 0.00 | 45 | 1012.2 |